Weather History for Hutchinson, KS

Change the Weather History Date:

Sunday, May 20, 2012

  Actual Average Record
Temperature  
Mean Temperature 68 °F -  
Max Temperature 81 °F 77 °F 95 °F (2014)
Min Temperature 55 °F 51 °F 39 °F (2000)
Cooling Degree Days 2    
Growing Degree Days 18 (Base 50)    
Moisture  
Dew Point 48 °F    
Average Humidity 55    
Maximum Humidity 87    
Minimum Humidity 28    
Precipitation  
Precipitation 0.00 in - - ()
Sea Level Pressure  
Sea Level Pressure 30.11 in    
Wind  
Wind Speed 10 mph (North)    
Max Wind Speed 14 mph    
Max Gust Speed 21 mph    
Visibility 10 miles    
Events      
Averages and records for this station are not official NWS values.
T = Trace of Precipitation, MM = Missing Value Source: NWS Daily Summary

Daily Weather History Graph

Daily Weather History Graph

Search for Another Location

Airport:

Trip Planner

Search our weather history database for the weather conditions in past years. The results will help you decide how hot, cold, wet, or windy it might be!

Date:

Astronomy

May. 20, 2012 Rise Set
Actual Time 6:16 AM CDT 8:39 PM CDT
Civil Twilight 5:46 AM CDT 9:09 PM CDT
Nautical Twilight 5:09 AM CDT 9:47 PM CDT
Astronomical Twilight 4:28 AM CDT 10:28 PM CDT
Moon 5:57 AM CDT (5/20) 8:39 PM CDT (5/20)
Length of Visible Light 15h 23m
Length of Day
14h 23m
Waning Crescent, 0% of the Moon is Illuminated
May 20
Waning Crescent
May 20
New
May 28
First Quarter
Jun 4
Full
Jun 11
Last Quarter

Hourly Weather History & Observations

Time (CDT) Temp. Dew Point Humidity Pressure Visibility Wind Dir Wind Speed Gust Speed Precip Events Conditions
12:52 AM 62.1 °F 53.1 °F 72% 29.98 in 10.0 mi NNW 10.4 mph - N/A   Mostly Cloudy
1:52 AM 60.1 °F 52.0 °F 75% 29.99 in 10.0 mi NNW 11.5 mph - N/A   Scattered Clouds
2:52 AM 59.0 °F 51.1 °F 75% 29.98 in 10.0 mi NNW 11.5 mph - N/A   Clear
3:52 AM 57.9 °F 51.1 °F 78% 29.98 in 10.0 mi NNW 11.5 mph - N/A   Scattered Clouds
4:52 AM 57.0 °F 51.1 °F 81% 30.01 in 10.0 mi NNW 13.8 mph - N/A   Clear
5:52 AM 55.9 °F 51.1 °F 84% 30.06 in 10.0 mi North 8.1 mph - N/A   Clear
6:52 AM 55.9 °F 52.0 °F 87% 30.10 in 10.0 mi NNW 8.1 mph - N/A   Clear
7:52 AM 57.0 °F 52.0 °F 83% 30.09 in 10.0 mi North 8.1 mph - N/A   Clear
8:52 AM 62.1 °F 53.1 °F 72% 30.12 in 10.0 mi North 13.8 mph - N/A   Clear
9:52 AM 64.0 °F 53.1 °F 67% 30.14 in 10.0 mi North 12.7 mph 17.3 mph N/A   Partly Cloudy
10:52 AM 70.0 °F 51.1 °F 51% 30.15 in 10.0 mi NNE 13.8 mph 19.6 mph N/A   Clear
11:52 AM 73.0 °F 48.9 °F 42% 30.17 in 10.0 mi North 10.4 mph 20.7 mph N/A   Clear
12:52 PM 75.0 °F 46.9 °F 37% 30.17 in 10.0 mi North 10.4 mph 18.4 mph N/A   Clear
1:52 PM 75.9 °F 46.0 °F 35% 30.16 in 10.0 mi North 6.9 mph 19.6 mph N/A   Clear
2:52 PM 77.0 °F 44.1 °F 31% 30.14 in 10.0 mi North 10.4 mph - N/A   Clear
3:52 PM 80.1 °F 44.1 °F 28% 30.14 in 10.0 mi North 12.7 mph 17.3 mph N/A   Clear
4:52 PM 78.8 °F 44.6 °F 30% 30.18 in 10.0 mi North 8.1 mph - N/A   Clear
5:52 PM 79.0 °F 44.1 °F 29% 30.12 in 10.0 mi North 8.1 mph - N/A   Clear
6:52 PM 78.1 °F 44.1 °F 30% 30.12 in 10.0 mi North 9.2 mph - N/A   Clear
7:52 PM 73.0 °F 45.0 °F 37% 30.13 in 10.0 mi NNE 4.6 mph - N/A   Clear
8:52 PM 66.9 °F 43.0 °F 42% 30.15 in 10.0 mi North 6.9 mph - N/A   Clear
9:52 PM 62.6 °F 42.8 °F 48% 30.21 in 10.0 mi NNE 6.9 mph - N/A   Clear
10:52 PM 62.1 °F 43.0 °F 50% 30.18 in 10.0 mi NNE 8.1 mph - N/A   Clear
11:52 PM 60.1 °F 44.1 °F 55% 30.19 in 10.0 mi NNE 6.9 mph - N/A   Clear